Location: Kalberh�ni
(46.4610°N, 7.2453°E)
Time: 17:05:04
(UTC+00:00)

Meteor 2-1 Rocket - Pass Details

Date: 28 October 2021
Orbit: 830 x 906 km, 81.3° (Epoch: 28 November)

Event Time Altitude Azimuth Distance (km) Brightness Sun altitude
Rises 17:26:35 0° 145° (SE) 3,410 7.1 -11.7°
Reaches altitude 10° 17:29:41 10° 127° (SE) 2,467 6.2 -12.2°
Maximum altitude 17:33:27 19° 85° (E) 1,911 5.4 -12.8°
Drops below altitude 10° 17:37:11 10° 42° (NE) 2,455 6.2 -13.5°
Sets 17:40:15 0° 25° (NNE) 3,389 7.0 -14.0°
